Starlink 32155

operational
NORAD ID: 60274 Int'l Des: 2024-131 Owner: SPXS Country: US Constellation: starlink
LEOCIRCULAR

About Starlink 32155

Description loading...

Live Position

Loading 3D Globe...

Upcoming Passes

Altitude History

Altitude vs Time

uPlot chart will show altitude changes over time

Two-Line Element Set

1 60274U 24131V 25304.28372728 -.00001100 00000-0 -25025-4 0 9995
2 60274 53.1615 293.6744 0001432 95.2058 264.9107 15.30188493 71803
Epoch: Oct 31, 2025 • Age: 4 hours

Current Status

Altitude 493.0 km
Velocity 7.62 km/s
Sub-Earth Point -48.95°S, 33.83°W
Launch Date Jul 27, 2024
Age 1.2 years
Type internet

Technical Details

Classification Payload
Mass 730.00 kg
Dry Mass 700.00 kg
Total Mass 730.00 kg
Length 0.30 m
Diameter 4.10 m
Span 29.00 m
Shape Box + pan
Manufacturer SPXS
Bus Type Starlink V2M
Phase Status In Orbit
Owner/State SPXS/US

Large Constellations

Loading constellations...